Chronos: Grand Prix de Chine 2017

Ils méprisent les légendes, ne se déterminent que face aux faits et au jugement de la piste, leurs arguments font l'économie du sentiment et leur grammaire se nomme triangulation. Ils n'aspirent pas à convaincre, intimement certains de ne pas défendre une opinion mais d'énoncer la Vérité. Ce lieu est leur sanctuaire, le dernier conservatoire de leurs Prophéties.

Modérateurs: sheon, Nicklaus, von Rauffenstein

Chronos: Grand Prix de Chine 2017

Messagede Hugues le 07 Avr 2017, 04:28

La hiérarchie et les meilleurs partiels de chacun des pilotes à l'issue de la 1ère séance d'essais libres :
Code: Tout sélectionner
01 33 M.VERSTAPPEN     1:50.491          28.6  33.8  48.0  2:10.394  4
02 19 F.MASSA          1:52.086    1.59  28.9  34.3  48.6  2:06.283  7
03 18 L.STROLL         1:52.507    2.02  29.0  34.4  49.1  2:07.437  7
04 55 C.SAINZ          1:52.840    2.35  29.2  34.9  48.8  2:20.535  5
05  8 R.GROSJEAN       1:53.039    2.55  29.0  34.6  49.1  2:03.210  6
06 26 D.KVYAT          1:53.314    2.82  28.8  35.2  49.0  2:15.256  4
07 14 F.ALONSO         1:53.520    3.03  29.3  34.6  49.6  2:07.900  5
08  3 D.RICCIARDO      1:54.038    3.55  29.4  34.7  48.6  2:16.523  7
09 77 V.BOTTAS         1:54.664    4.17  29.3  35.5  49.8  2:21.098  4
10 20 K.MAGNUSSEN      1:55.104    4.61  29.7  35.2  49.9  2:24.712  8
11 27 N.HULKENBERG     1:55.608    5.12  29.7  35.2  50.5  3:06.844  6
12  2 S.VANDOORNE      1:57.445    6.95  30.5  36.3  50.7  2:08.900  4
13  9 M.ERICSSON       2:15.138   24.65  34.4  39.0  59.5  2:15.138  4
14 36 A.GIOVINAZZI     2:15.281   24.79  31.1  41.4  56.7  2:15.281  4
15 30 J.PALMER                                 40.0                  3
16  5 S.VETTEL                                 39.0                  2
17  7 K.RAIKKONEN                              37.3                  1
18 31 E.OCON                                   38.1        9:01.799  2
19 11 S.PEREZ                            31.5  35.7  52.6  2:19.637  3
20 44 L.HAMILTON                               37.3        6:38.416  2


À retenir:
- Séance courue sur piste humide
- Après une ou deux centaines de seconde dans la séance, la séance est interrompue sur drapeau rouge du fait de l'impossibilité de l'hélicoptère médical d'atterrir à l'hopital de Shanghai.
- La séance va reprendre après près de 45 minutes d'attente. Mais 18 minutes plus tard la séance est de nouveau interrompue, et ne reprendra pas (décision prise à 4 minutes de la fin de séance) du fait de l'impossibilité cette fois de l'hélicoptère non seulement d'atterrir à l'hôpital de Shanghai mais même dans les dernières minutes d'attente, de décoller du circuit.
- Quelques nombreuses sorties de piste ou tête à queue, la mise en température de ces pneus larges semble être très difficile.


Hugues
世の中は何にたとへん水鳥の嘴はし振る露にやとる月影
Avatar de l'utilisateur
Hugues
Michel Desjoyeaux virtuel
 
Messages: 22029
Inscription: 26 Fév 2003, 05:14

Re: Chronos: Grand Prix de Chine 2017

Messagede Hugues le 07 Avr 2017, 04:30

La chronologie chronométrique des améliorations de chacun des pilotes lors de la 1ère séance d'essais libres:

Code: Tout sélectionner
[10:0?:??] [Drapeau rouge]
[10:47:00] [Feu vert]
[10:52:20] K. MAGNUSSEN   2:00.231 (1)
[10:52:38] R. GROSJEAN    2:01.176 (2)
[10:53:01] L. STROLL      1:54.508 (1)
[10:53:17] S. VANDOORNE   1:57.445 (2)
[10:54:17] K. MAGNUSSEN   1:55.304 (2)
[10:54:20] N. HULKENBERG  1:55.608 (3)
[10:54:31] R. GROSJEAN    1:53.664 (1)
[10:54:40] F. ALONSO      1:53.973 (2)
[10:54:56] L. STROLL      1:52.507 (1)
[10:55:04] V. BOTTAS      1:54.664 (4)
[10:55:06] D. RICCIARDO   1:54.038 (4)
[10:55:22] M. VERSTAPPEN  1:52.266 (1)
[10:56:25] R. GROSJEAN    1:53.039 (3)
[10:56:33] F. ALONSO      1:53.520 (4)
[10:56:44] F. MASSA       1:52.373 (2)
[10:57:12] M. VERSTAPPEN  1:50.491 (1)
[10:57:41] C. SAINZ       2:01.121 (11)
[10:58:09] K. MAGNUSSEN   1:55.104 (8)
[10:58:35] F. MASSA       1:52.086 (2)
[10:59:23] D. KVYAT       1:53.314 (5)
[10:59:34] C. SAINZ       1:52.840 (4)
[11:03:32] M. ERICSSON    2:15.138 (13)
[11:04:10] A. GIOVINAZZI  2:15.281 (14)
[11:04:5?] [Drapeau rouge]


Hugues
世の中は何にたとへん水鳥の嘴はし振る露にやとる月影
Avatar de l'utilisateur
Hugues
Michel Desjoyeaux virtuel
 
Messages: 22029
Inscription: 26 Fév 2003, 05:14

Re: Chronos: Grand Prix de Chine 2017

Messagede Hugues le 07 Avr 2017, 08:33

Pas de 2ème séance d'essais libres. Pour les même raisons évoquées précédemment.

Hugues
世の中は何にたとへん水鳥の嘴はし振る露にやとる月影
Avatar de l'utilisateur
Hugues
Michel Desjoyeaux virtuel
 
Messages: 22029
Inscription: 26 Fév 2003, 05:14

Re: Chronos: Grand Prix de Chine 2017

Messagede Hugues le 08 Avr 2017, 07:31

La hiérarchie et les meilleurs partiels de chacun des pilotes à l'issue de la 3ème séance d'essais libres :
Code: Tout sélectionner
01  5 S.VETTEL         1:33.336          24.5  27.6  41.2  2:47.146 20
02  7 K.RAIKKONEN      1:33.389    0.05  24.5  27.7  41.1  2:15.248 19
03 77 V.BOTTAS         1:33.707    0.37  24.7  27.9  41.1  2:20.733 26
04 44 L.HAMILTON       1:33.879    0.54  24.4  27.6  41.5  1:51.413 25
05 19 F.MASSA          1:34.773    1.44  24.9  28.1  41.6  2:02.016 23
06 33 M.VERSTAPPEN     1:34.946    1.61  24.9  28.3  41.7  1:45.964 20
07  3 D.RICCIARDO      1:35.092    1.76  25.0  28.3  41.7  1:44.823 23
08 18 L.STROLL         1:35.182    1.85  25.0  28.3  41.9  1:54.127 24
09 30 J.PALMER         1:35.192    1.86  25.0  28.3  41.9  1:57.818 21
10 55 C.SAINZ          1:35.223    1.89  24.9  28.3  42.0  1:40.683 24
11 27 N.HULKENBERG     1:35.449    2.11  25.1  28.4  42.0  1:55.310 22
12 20 K.MAGNUSSEN      1:35.521    2.19  24.9  28.4  42.2  1:53.926 22
13 11 S.PEREZ          1:35.626    2.29  24.9  28.5  42.2  1:58.618 20
14  8 R.GROSJEAN       1:35.680    2.34  25.2  28.3  42.1  1:50.854 22
15 26 D.KVYAT          1:35.804    2.47  25.0  28.5  42.1  1:51.512 23
16 31 E.OCON           1:35.811    2.48  25.1  28.4  42.2  1:52.129 24
17 14 F.ALONSO         1:35.912    2.58  25.2  28.3  42.3  1:57.898 17
18  9 M.ERICSSON       1:36.063    2.73  25.1  28.6  42.3  1:52.827 25
19  2 S.VANDOORNE      1:36.221    2.88  25.1  28.6  42.5  1:49.013 21
20 36 A.GIOVINAZZI     1:36.705    3.37  25.4  28.6  42.6  2:33.970 24


À retenir:
- Selon Aym (lire ici), Hamilton a été gêné et est en fait au niveau de Vettel.


Hugues
世の中は何にたとへん水鳥の嘴はし振る露にやとる月影
Avatar de l'utilisateur
Hugues
Michel Desjoyeaux virtuel
 
Messages: 22029
Inscription: 26 Fév 2003, 05:14

Re: Chronos: Grand Prix de Chine 2017

Messagede Hugues le 08 Avr 2017, 07:33

La chronologie chronométrique des améliorations de chacun des pilotes lors de la 3ème séance d'essais libres:
Code: Tout sélectionner
[12:03:45] J. PALMER      1:44.420 (1)
[12:03:51] R. GROSJEAN    1:41.238 (1)
[12:04:09] N. HULKENBERG  1:39.343 (1)
[12:04:18] S. VETTEL      1:39.688 (2)
[12:04:42] M. VERSTAPPEN  1:40.479 (3)
[12:05:06] F. MASSA       1:40.152 (3)
[12:05:08] L. STROLL      1:38.586 (1)
[12:05:17] K. MAGNUSSEN   1:40.624 (6)
[12:05:20] S. VANDOORNE   1:38.937 (2)
[12:05:27] J. PALMER      1:40.995 (8)
[12:05:32] R. GROSJEAN    1:41.076 (9)
[12:05:37] E. OCON        1:40.135 (5)
[12:05:43] D. RICCIARDO   1:37.411 (1)
[12:05:57] S. VETTEL      1:39.214 (4)
[12:06:13] C. SAINZ       1:40.477 (8)
[12:06:21] M. VERSTAPPEN  1:39.786 (6)
[12:06:42] V. BOTTAS      1:39.844 (7)
[12:06:56] L. HAMILTON    1:39.983 (8)
[12:07:07] A. GIOVINAZZI  1:41.532 (15)
[12:07:13] R. GROSJEAN    1:40.985 (13)
[12:07:21] D. KVYAT       1:40.656 (13)
[12:07:21] M. ERICSSON    1:42.622 (17)
[12:07:43] S. PEREZ       1:37.809 (2)
[12:08:13] F. ALONSO      1:40.689 (15)
[12:08:22] V. BOTTAS      1:39.378 (7)
[12:08:26] F. MASSA       1:39.979 (9)
[12:08:30] L. STROLL      1:38.249 (3)
[12:08:35] L. HAMILTON    1:39.267 (6)
[12:08:53] J. PALMER      1:40.752 (16)
[12:08:57] K. RAIKKONEN   1:39.005 (5)
[12:09:00] E. OCON        1:38.791 (4)
[12:09:03] M. ERICSSON    1:42.129 (20)
[12:09:41] M. VERSTAPPEN  1:39.634 (11)
[12:10:08] L. STROLL      1:38.191 (3)
[12:11:05] S. PEREZ       1:37.696 (2)
[12:11:20] M. VERSTAPPEN  1:39.407 (11)
[12:11:35] F. ALONSO      1:40.432 (13)
[12:12:11] A. GIOVINAZZI  1:41.506 (19)
[12:12:21] S. VANDOORNE   1:38.394 (4)
[12:12:24] K. RAIKKONEN   1:38.568 (5)
[12:12:33] E. OCON        1:38.724 (6)
[12:13:36] L. STROLL      1:38.022 (3)
[12:14:28] S. PEREZ       1:37.546 (2)
[12:14:46] D. RICCIARDO   1:35.647 (1)
[12:15:48] S. VANDOORNE   1:37.852 (3)
[12:16:01] E. OCON        1:38.570 (6)
[12:16:45] F. MASSA       1:39.878 (12)
[12:17:34] M. ERICSSON    1:41.247 (19)
[12:17:58] C. SAINZ       1:40.387 (13)
[12:18:38] L. STROLL      1:37.799 (3)
[12:20:31] M. VERSTAPPEN  1:39.001 (7)
[12:24:05] A. GIOVINAZZI  1:41.423 (20)
[12:25:08] V. BOTTAS      1:39.370 (11)
[12:26:12] D. KVYAT       1:39.788 (12)
[12:28:56] K. RAIKKONEN   1:34.519 (1)
[12:31:05] S. VETTEL      1:33.336 (1)
[12:32:21] K. RAIKKONEN   1:34.476 (2)
[12:33:17] F. ALONSO      1:36.293 (4)
[12:34:17] K. MAGNUSSEN   1:36.376 (5)
[12:35:02] M. VERSTAPPEN  1:35.439 (3)
[12:35:07] S. VANDOORNE   1:36.576 (7)
[12:35:22] F. MASSA       1:35.092 (3)
[12:35:27] R. GROSJEAN    1:36.235 (6)
[12:36:17] J. PALMER      1:36.334 (8)
[12:36:24] E. OCON        1:37.946 (13)
[12:36:31] C. SAINZ       1:35.930 (6)
[12:37:11] D. RICCIARDO   1:35.092 (4)
[12:37:41] L. STROLL      1:35.596 (6)
[12:38:06] N. HULKENBERG  1:35.449 (6)
[12:38:20] A. GIOVINAZZI  1:37.216 (14)
[12:39:08] M. ERICSSON    1:37.028 (14)
[12:39:43] J. PALMER      1:36.035 (9)
[12:39:50] E. OCON        1:37.587 (17)
[12:42:51] S. PEREZ       1:36.587 (14)
[12:42:57] V. BOTTAS      1:34.333 (2)
[12:43:22] E. OCON        1:37.029 (17)
[12:44:06] L. HAMILTON    1:34.093 (2)
[12:44:33] D. KVYAT       1:35.804 (10)
[12:47:20] K. RAIKKONEN   1:33.389 (2)
[12:54:21] M. VERSTAPPEN  1:34.946 (5)
[12:54:41] E. OCON        1:35.811 (11)
[12:54:47] R. GROSJEAN    1:35.680 (10)
[12:54:50] A. GIOVINAZZI  1:36.705 (19)
[12:55:31] F. MASSA       1:34.773 (5)
[12:55:37] J. PALMER      1:35.192 (8)
[12:55:44] C. SAINZ       1:35.223 (9)
[12:55:47] M. ERICSSON    1:36.063 (15)
[12:56:02] V. BOTTAS      1:33.707 (3)
[12:56:08] S. VANDOORNE   1:36.221 (16)
[12:56:18] L. HAMILTON    1:33.879 (4)
[12:56:36] K. MAGNUSSEN   1:35.521 (11)
[12:56:46] F. ALONSO      1:35.912 (16)
[12:56:54] L. STROLL      1:35.182 (8)
[12:57:00] S. PEREZ       1:35.626 (13)


Hugues
世の中は何にたとへん水鳥の嘴はし振る露にやとる月影
Avatar de l'utilisateur
Hugues
Michel Desjoyeaux virtuel
 
Messages: 22029
Inscription: 26 Fév 2003, 05:14

Re: Chronos: Grand Prix de Chine 2017

Messagede Hugues le 08 Avr 2017, 08:24

La hiérarchie et les meilleurs partiels de chacun des pilotes à l'issue de la 1ère période de qualification :
Code: Tout sélectionner
01  5 S.VETTEL         1:33.078          24.3  27.5  41.2  2:02.704  3
02 44 L.HAMILTON       1:33.333    0.26  24.2  27.4  41.7  1:50.954  4
03  7 K.RAIKKONEN      1:33.341    0.26  24.5  27.8  41.1  1:52.004  3
04 77 V.BOTTAS         1:33.684    0.61  24.6  27.8  41.2  2:13.103  5
05 18 L.STROLL         1:33.986    0.91  24.8  27.9  41.3  1:59.829  8
06  3 D.RICCIARDO      1:34.041    0.96  24.8  27.9  41.4  2:05.380  3
07 19 F.MASSA          1:34.205    1.13  24.8  28.0  41.5  2:05.911  3
08 26 D.KVYAT          1:34.440    1.36  24.6  28.1  41.7  1:51.917  5
09 27 N.HULKENBERG     1:34.453    1.38  24.5  27.8  41.5  1:56.592  7
10 14 F.ALONSO         1:34.499    1.42  24.7  27.9  41.8  1:44.756  5
11 55 C.SAINZ          1:34.567    1.49  24.6  27.9  41.7  1:48.480  5
12 11 S.PEREZ          1:34.657    1.58  24.6  28.1  41.8  1:44.537  6
13  9 M.ERICSSON       1:34.892    1.81  24.7  28.1  42.0  2:03.049  9
14 20 K.MAGNUSSEN      1:34.942    1.86  24.7  28.1  41.8  2:05.141  6
15 36 A.GIOVINAZZI     1:34.963    1.89  25.0  28.2  41.8  3:52.787  8
16  2 S.VANDOORNE      1:35.023    1.95  24.9  28.1  42.0  1:56.322  6
17  8 R.GROSJEAN       1:35.223    2.15  24.6  28.0  42.7  2:19.364  6
18 30 J.PALMER         1:35.279    2.20  24.9  29.0  42.6  1:59.975  6
19 33 M.VERSTAPPEN     1:35.433    2.35  24.9  28.3  42.2  2:00.610  7
20 31 E.OCON           1:35.496    2.42  24.8  28.0  41.9  2:13.931  8


À retenir:
- Un important crash de Giovinazzi dans les dernières secondes empêche certains pilotes tels que Grosjean de se qualifier ainsi qu'ils le méritaient en Q2.


Hugues
世の中は何にたとへん水鳥の嘴はし振る露にやとる月影
Avatar de l'utilisateur
Hugues
Michel Desjoyeaux virtuel
 
Messages: 22029
Inscription: 26 Fév 2003, 05:14

Re: Chronos: Grand Prix de Chine 2017

Messagede Hugues le 08 Avr 2017, 08:25

La chronologie chronométrique des améliorations de chacun des pilotes lors de la 1ère période de qualification:
Code: Tout sélectionner
[15:03:42] A. GIOVINAZZI  1:35.437 (1)
[15:03:50] M. ERICSSON    1:35.869 (2)
[15:04:37] L. STROLL      1:35.136 (1)
[15:06:08] K. MAGNUSSEN   1:34.942 (1)
[15:06:23] N. HULKENBERG  1:34.453 (1)
[15:06:38] F. MASSA       1:34.205 (1)
[15:06:50] L. HAMILTON    1:33.333 (1)
[15:06:56] S. PEREZ       1:34.657 (4)
[15:06:56] R. GROSJEAN    1:48.622 (9)
[15:07:02] J. PALMER      1:36.474 (9)
[15:07:06] V. BOTTAS      1:33.727 (2)
[15:07:11] E. OCON        1:35.557 (9)
[15:07:22] K. RAIKKONEN   1:33.341 (2)
[15:07:35] S. VETTEL      1:33.078 (1)
[15:09:25] M. VERSTAPPEN  1:54.598 (15)
[15:09:45] D. KVYAT       1:34.440 (6)
[15:09:51] F. ALONSO      1:34.499 (8)
[15:10:01] C. SAINZ       1:34.567 (9)
[15:10:05] D. RICCIARDO   1:34.041 (5)
[15:10:41] V. BOTTAS      1:33.684 (4)
[15:10:47] E. OCON        1:35.496 (15)
[15:10:51] A. GIOVINAZZI  1:34.963 (13)
[15:11:07] M. ERICSSON    1:34.892 (12)
[15:12:05] S. VANDOORNE   1:35.127 (15)
[15:15:56] L. STROLL      1:33.986 (5)
[15:16:40] M. VERSTAPPEN  1:35.433 (17)
[15:17:55] S. VANDOORNE   1:35.023 (16)
[15:18:34] R. GROSJEAN    1:35.223 (17)
[15:18:41] J. PALMER      1:35.279 (18)


Hugues
世の中は何にたとへん水鳥の嘴はし振る露にやとる月影
Avatar de l'utilisateur
Hugues
Michel Desjoyeaux virtuel
 
Messages: 22029
Inscription: 26 Fév 2003, 05:14

Re: Chronos: Grand Prix de Chine 2017

Messagede Hugues le 08 Avr 2017, 08:54

La hiérarchie et les meilleurs partiels de chacun des pilotes à l'issue de la 2ème période de qualification :
Code: Tout sélectionner
1  7 K.RAIKKONEN      1:32.181          24.1  27.2  40.8  2:01.844  9
2  5 S.VETTEL         1:32.391    0.21  24.2  27.3  40.8  2:02.264  9
3 44 L.HAMILTON       1:32.406    0.23  24.2  27.2  40.9  2:08.714  7
4 77 V.BOTTAS         1:32.552    0.37  24.2  27.5  40.9  2:06.737  8
5  3 D.RICCIARDO      1:33.546    1.36  24.5  27.7  41.4  2:04.929  6
6 27 N.HULKENBERG     1:33.636    1.46  24.5  27.8  41.3  2:04.501 13
7 19 F.MASSA          1:33.759    1.58  24.6  27.8  41.4  1:41.531  8
8 11 S.PEREZ          1:33.920    1.74  24.5  27.9  41.5  2:09.489 12
9 26 D.KVYAT          1:34.034    1.85  24.6  27.9  41.4  2:01.142 11
10 18 L.STROLL         1:34.090    1.91  24.8  27.9  41.3  2:08.065 15
11 55 C.SAINZ          1:34.150    1.97  24.6  27.8  41.7  2:07.641 11
12 20 K.MAGNUSSEN      1:34.164    1.98  24.6  28.1  41.5  1:53.357 12
13 14 F.ALONSO         1:34.372    2.19  24.7  27.9  41.8  2:10.768 11
14  9 M.ERICSSON       1:35.046    2.87  24.7  28.1  42.0  1:57.981 15
15 36 A.GIOVINAZZI                       25.0  28.2  41.8  1:47.572  8
16  2 S.VANDOORNE      1:35.023    2.84  24.9  28.1  42.0  2:17.824  6
17  8 R.GROSJEAN       1:35.223    3.04  24.6  28.0  42.7  7:44.734  6
18 30 J.PALMER         1:35.279    3.10  24.9  29.0  42.6  8:08.295  6
19 33 M.VERSTAPPEN     1:35.433    3.25  24.9  28.3  42.2  1:35.433  7
20 31 E.OCON           1:35.496    3.31  24.8  28.0  41.9  4:45.775  8


Hugues
世の中は何にたとへん水鳥の嘴はし振る露にやとる月影
Avatar de l'utilisateur
Hugues
Michel Desjoyeaux virtuel
 
Messages: 22029
Inscription: 26 Fév 2003, 05:14

Re: Chronos: Grand Prix de Chine 2017

Messagede Hugues le 08 Avr 2017, 08:56

La chronologie chronométrique des améliorations de chacun des pilotes lors de la 2ème période de qualification:
Code: Tout sélectionner
[15:35:00] [Feu vert]
[15:38:41] K. RAIKKONEN   1:32.602 (1)
[15:38:48] L. STROLL      1:34.090 (2)
[15:39:00] S. VETTEL      1:32.391 (1)
[15:39:08] L. HAMILTON    1:32.406 (2)
[15:39:14] N. HULKENBERG  1:34.392 (5)
[15:39:27] V. BOTTAS      1:32.552 (3)
[15:39:35] D. KVYAT       1:34.131 (6)
[15:39:42] C. SAINZ       1:34.150 (7)
[15:39:56] D. RICCIARDO   1:33.546 (5)
[15:40:06] S. PEREZ       1:34.186 (9)
[15:41:58] F. MASSA       1:33.759 (6)
[15:42:04] K. MAGNUSSEN   1:34.436 (12)
[15:42:55] F. ALONSO      1:34.372 (11)
[15:43:00] M. ERICSSON    1:36.023 (14)
[15:50:00] [Drapeau à damiers]
[15:50:12] N. HULKENBERG  1:33.636 (6)
[15:50:19] D. KVYAT       1:34.034 (8)
[15:50:25] M. ERICSSON    1:35.046 (14)
[15:50:32] K. MAGNUSSEN   1:34.164 (11)
[15:50:43] S. PEREZ       1:33.920 (8)
[15:51:04] K. RAIKKONEN   1:32.181 (1)


Hugues
世の中は何にたとへん水鳥の嘴はし振る露にやとる月影
Avatar de l'utilisateur
Hugues
Michel Desjoyeaux virtuel
 
Messages: 22029
Inscription: 26 Fév 2003, 05:14

Re: Chronos: Grand Prix de Chine 2017

Messagede Hugues le 08 Avr 2017, 09:45

La hiérarchie et les meilleurs partiels de chacun des pilotes à l'issue de la 3ème période de qualification :
Code: Tout sélectionner
01 44 L.HAMILTON       1:31.678          24.0  27.1  40.6  2:15.053 13
02  5 S.VETTEL         1:31.864    0.19  24.0  27.2  40.6  2:13.533 15
03 77 V.BOTTAS         1:31.865    0.19  24.2  27.2  40.5  2:24.130 14
04  7 K.RAIKKONEN      1:32.140    0.46  24.1  27.1  40.7  2:15.209 15
05  3 D.RICCIARDO      1:33.033    1.35  24.4  27.4  41.1  2:15.966 12
06 19 F.MASSA          1:33.507    1.83  24.5  27.7  41.2  2:15.334 14
07 27 N.HULKENBERG     1:33.580    1.90  24.4  27.8  41.3  2:06.842 16
08 11 S.PEREZ          1:33.706    2.03  24.5  27.9  41.3  2:20.573 15
09 26 D.KVYAT          1:33.719    2.04  24.4  27.7  41.4  2:13.252 17
10 18 L.STROLL         1:34.220    2.54  24.8  27.8  41.3  2:15.082 18
11 55 C.SAINZ          1:34.150    2.47  24.6  27.8  41.7  1:34.192 11
12 20 K.MAGNUSSEN      1:34.164    2.49  24.6  28.1  41.5  1:34.164 12
13 14 F.ALONSO         1:34.372    2.69  24.7  27.9  41.8  1:34.436 11
14  9 M.ERICSSON       1:35.046    3.37  24.7  28.1  42.0  1:35.046 15
15 36 A.GIOVINAZZI                       25.0  28.2  41.8  1:47.572  8
16  2 S.VANDOORNE      1:35.023    3.35  24.9  28.1  42.0  2:17.824  6
17  8 R.GROSJEAN       1:35.223    3.54  24.6  28.0  42.7  7:44.734  6
18 30 J.PALMER         1:35.279    3.60  24.9  29.0  42.6  8:08.295  6
19 33 M.VERSTAPPEN     1:35.433    3.75  24.9  28.3  42.2  1:35.433  7
20 31 E.OCON           1:35.496    3.82  24.8  28.0  41.9  4:45.775  8


Hugues
世の中は何にたとへん水鳥の嘴はし振る露にやとる月影
Avatar de l'utilisateur
Hugues
Michel Desjoyeaux virtuel
 
Messages: 22029
Inscription: 26 Fév 2003, 05:14

Re: Chronos: Grand Prix de Chine 2017

Messagede Hugues le 08 Avr 2017, 09:47

La chronologie chronométrique des améliorations de chacun des pilotes lors de la 3ème période de qualification:
Code: Tout sélectionner
[15:58:00] [Feu vert]
[16:01:43] N. HULKENBERG  1:33.580 (1)
[16:01:50] D. KVYAT       1:34.645 (2)
[16:01:59] L. HAMILTON    1:31.902 (1)
[16:02:25] D. RICCIARDO   1:33.261 (2)
[16:02:32] V. BOTTAS      1:32.265 (2)
[16:02:43] K. RAIKKONEN   1:32.616 (3)
[16:02:50] S. VETTEL      1:32.086 (2)
[16:03:04] F. MASSA       1:33.660 (7)
[16:10:00] [Drapeau à damiers]
[16:10:13] S. PEREZ       1:33.706 (8)
[16:10:17] D. KVYAT       1:33.719 (9)
[16:10:21] D. RICCIARDO   1:33.033 (5)
[16:10:30] L. HAMILTON    1:31.678 (1)
[16:10:40] L. STROLL      1:34.220 (10)
[16:10:47] F. MASSA       1:33.507 (6)
[16:10:53] V. BOTTAS      1:31.865 (2)
[16:11:00] K. RAIKKONEN   1:32.140 (4)
[16:11:05] S. VETTEL      1:31.864 (2)


Hugues
世の中は何にたとへん水鳥の嘴はし振る露にやとる月影
Avatar de l'utilisateur
Hugues
Michel Desjoyeaux virtuel
 
Messages: 22029
Inscription: 26 Fév 2003, 05:14


Retourner vers Forum statistiques

Qui est en ligne

Utilisateurs parcourant ce forum: Aucun utilisateur enregistré et 1 invité